Time,TemperatureF,DewpointF,PressureIn,WindDirection,WindDirectionDegrees,WindSpeedMPH,WindSpeedGustMPH,Humidity,HourlyPrecipIn,Conditions,Clouds,dailyrainin,SolarRadiationWatts/m^2,SoftwareType,DateUTC
2013-01-12 00:32:00,51.0,51.0,-100.00,NE,42,4.0,16.0,100,0.01,,,0.15,0.000000,,2013-01-12 05:32:00,
2013-01-12 00:42:00,51.0,51.0,-100.00,NE,42,4.0,16.0,100,0.01,,,0.15,0.000000,,2013-01-12 05:42:00,
2013-01-12 00:53:00,51.0,51.0,-100.00,NE,42,4.0,16.0,100,0.01,,,0.15,0.000000,,2013-01-12 05:53:00,
2013-01-12 01:02:00,51.0,51.0,-100.00,NE,42,4.0,16.0,100,0.01,,,0.15,0.000000,,2013-01-12 06:02:00,
2013-01-12 01:33:00,52.0,52.0,-100.00,NNW,346,7.0,12.0,100,0.00,,,0.15,0.000000,,2013-01-12 06:33:00,
2013-01-12 01:43:00,52.0,52.0,-100.00,NNW,346,7.0,12.0,100,0.00,,,0.15,0.000000,,2013-01-12 06:43:00,
2013-01-12 01:53:00,52.0,52.0,-100.00,NNW,346,7.0,12.0,100,0.00,,,0.15,0.000000,,2013-01-12 06:53:00,
2013-01-12 02:02:00,52.0,52.0,-100.00,NNW,346,7.0,12.0,100,0.00,,,0.15,0.000000,,2013-01-12 07:02:00,
2013-01-12 02:32:00,52.0,52.0,-100.00,ENE,64,7.0,16.0,100,0.01,,,0.15,0.000000,,2013-01-12 07:32:00,
2013-01-12 02:42:00,52.0,52.0,-100.00,ENE,64,7.0,16.0,100,0.01,,,0.15,0.000000,,2013-01-12 07:42:00,
2013-01-12 02:53:00,52.0,52.0,-100.00,ENE,64,7.0,16.0,100,0.01,,,0.15,0.000000,,2013-01-12 07:53:00,
2013-01-12 03:02:00,52.0,52.0,-100.00,ENE,64,7.0,16.0,100,0.01,,,0.15,0.000000,,2013-01-12 08:02:00,
2013-01-12 03:32:00,52.0,52.0,-100.00,ENE,76,6.0,12.0,100,0.00,,,0.14,0.000000,,2013-01-12 08:32:00,
2013-01-12 03:42:00,52.0,52.0,-100.00,ENE,76,6.0,12.0,100,0.00,,,0.14,0.000000,,2013-01-12 08:42:00,
2013-01-12 03:53:00,52.0,52.0,-100.00,ENE,76,6.0,12.0,100,0.00,,,0.14,0.000000,,2013-01-12 08:53:00,
2013-01-12 04:02:00,52.0,52.0,-100.00,ENE,76,6.0,12.0,100,0.00,,,0.14,0.000000,,2013-01-12 09:02:00,
2013-01-12 04:22:00,52.0,52.0,-100.00,East,101,5.0,11.0,100,0.00,,,0.13,0.000000,,2013-01-12 09:22:00,
2013-01-12 04:32:00,52.0,52.0,-100.00,East,101,5.0,11.0,100,0.00,,,0.13,0.000000,,2013-01-12 09:32:00,
2013-01-12 04:43:00,52.0,52.0,-100.00,East,101,5.0,11.0,100,0.00,,,0.13,0.000000,,2013-01-12 09:43:00,
2013-01-12 04:53:00,52.0,52.0,-100.00,East,101,5.0,11.0,100,0.00,,,0.13,0.000000,,2013-01-12 09:53:00,
2013-01-12 05:02:00,52.0,52.0,-100.00,East,101,5.0,11.0,100,0.00,,,0.13,0.000000,,2013-01-12 10:02:00,
2013-01-12 05:32:00,52.0,52.0,-100.00,WSW,239,8.0,15.0,100,0.01,,,0.13,0.000000,,2013-01-12 10:32:00,
2013-01-12 05:43:00,52.0,52.0,-100.00,WSW,239,8.0,15.0,100,0.01,,,0.13,0.000000,,2013-01-12 10:43:00,
2013-01-12 05:52:00,52.0,52.0,-100.00,WSW,239,8.0,15.0,100,0.01,,,0.13,0.000000,,2013-01-12 10:52:00,
2013-01-12 06:02:00,52.0,52.0,-100.00,WSW,239,8.0,15.0,100,0.01,,,0.13,0.000000,,2013-01-12 11:02:00,
2013-01-12 06:03:00,52.0,52.0,-100.00,SW,235,6.0,18.0,100,0.00,,,0.13,0.000000,,2013-01-12 11:03:00,
2013-01-12 06:22:00,52.0,52.0,-100.00,SW,235,6.0,18.0,100,0.00,,,0.13,0.000000,,2013-01-12 11:22:00,
2013-01-12 06:33:00,52.0,52.0,-100.00,SW,235,6.0,18.0,100,0.00,,,0.13,0.000000,,2013-01-12 11:33:00,
2013-01-12 06:43:00,52.0,52.0,-100.00,SW,235,6.0,18.0,100,0.00,,,0.13,0.000000,,2013-01-12 11:43:00,
2013-01-12 06:53:00,52.0,52.0,-100.00,SW,235,6.0,18.0,100,0.00,,,0.13,0.000000,,2013-01-12 11:53:00,
2013-01-12 07:33:00,51.0,51.0,-100.00,ENE,74,6.0,16.0,100,0.00,,,0.12,0.000000,,2013-01-12 12:33:00,
2013-01-12 07:43:00,51.0,51.0,-100.00,ENE,74,6.0,16.0,100,0.00,,,0.12,0.000000,,2013-01-12 12:43:00,
2013-01-12 07:53:00,51.0,51.0,-100.00,ENE,74,6.0,16.0,100,0.00,,,0.12,0.000000,,2013-01-12 12:53:00,
2013-01-12 08:02:00,51.0,51.0,-100.00,ENE,74,6.0,16.0,100,0.00,,,0.12,0.000000,,2013-01-12 13:02:00,
2013-01-12 08:33:00,51.0,51.0,-100.00,NE,51,7.0,13.0,100,0.00,,,0.08,2.000000,,2013-01-12 13:33:00,
2013-01-12 08:43:00,51.0,51.0,-100.00,NE,51,7.0,13.0,100,0.00,,,0.08,2.000000,,2013-01-12 13:43:00,
2013-01-12 08:53:00,51.0,51.0,-100.00,NE,51,7.0,13.0,100,0.00,,,0.08,2.000000,,2013-01-12 13:53:00,
2013-01-12 09:02:00,51.0,51.0,-100.00,NE,51,7.0,13.0,100,0.00,,,0.08,2.000000,,2013-01-12 14:02:00,
2013-01-12 09:03:00,52.0,52.0,-100.00,WNW,289,3.0,12.0,100,0.00,,,0.06,11.000000,,2013-01-12 14:03:00,
2013-01-12 09:33:00,52.0,52.0,-100.00,WNW,289,3.0,12.0,100,0.00,,,0.06,11.000000,,2013-01-12 14:33:00,
2013-01-12 09:43:00,52.0,52.0,-100.00,WNW,289,3.0,12.0,100,0.00,,,0.06,11.000000,,2013-01-12 14:43:00,
2013-01-12 09:53:00,52.0,52.0,-100.00,WNW,289,3.0,12.0,100,0.00,,,0.06,11.000000,,2013-01-12 14:53:00,
2013-01-12 10:03:00,52.0,52.0,-100.00,NE,39,4.0,11.0,100,0.00,,,0.05,53.000000,,2013-01-12 15:03:00,
2013-01-12 10:23:00,52.0,52.0,-100.00,NE,39,4.0,11.0,100,0.00,,,0.05,53.000000,,2013-01-12 15:23:00,
2013-01-12 10:34:00,52.0,52.0,-100.00,NE,39,4.0,11.0,100,0.00,,,0.05,53.000000,,2013-01-12 15:34:00,
2013-01-12 10:43:00,52.0,52.0,-100.00,NE,39,4.0,11.0,100,0.00,,,0.05,53.000000,,2013-01-12 15:43:00,
2013-01-12 10:53:00,52.0,52.0,-100.00,NE,39,4.0,11.0,100,0.00,,,0.05,53.000000,,2013-01-12 15:53:00,
2013-01-12 11:33:00,53.0,53.0,-100.00,NE,40,5.0,11.0,100,0.00,,,0.05,79.000000,,2013-01-12 16:33:00,
2013-01-12 11:43:00,53.0,53.0,-100.00,NE,40,5.0,11.0,100,0.00,,,0.05,79.000000,,2013-01-12 16:43:00,
2013-01-12 11:53:00,53.0,53.0,-100.00,NE,40,5.0,11.0,100,0.00,,,0.05,79.000000,,2013-01-12 16:53:00,
2013-01-12 12:02:00,53.0,53.0,-100.00,NE,40,5.0,11.0,100,0.00,,,0.05,79.000000,,2013-01-12 17:02:00,
2013-01-12 12:03:00,53.0,53.0,-100.00,NNW,339,5.0,16.0,100,0.00,,,0.04,119.000000,,2013-01-12 17:03:00,
2013-01-12 12:33:00,53.0,53.0,-100.00,NNW,339,5.0,16.0,100,0.00,,,0.04,119.000000,,2013-01-12 17:33:00,
2013-01-12 12:43:00,53.0,53.0,-100.00,NNW,339,5.0,16.0,100,0.00,,,0.04,119.000000,,2013-01-12 17:43:00,
2013-01-12 12:53:00,53.0,53.0,-100.00,NNW,339,5.0,16.0,100,0.00,,,0.04,119.000000,,2013-01-12 17:53:00,
2013-01-12 13:03:00,56.0,56.0,-100.00,North,9,5.0,14.0,99,0.00,,,0.04,353.000000,,2013-01-12 18:03:00,
2013-01-12 13:33:00,56.0,56.0,-100.00,North,9,5.0,14.0,99,0.00,,,0.04,353.000000,,2013-01-12 18:33:00,
2013-01-12 13:43:00,56.0,56.0,-100.00,North,9,5.0,14.0,99,0.00,,,0.04,353.000000,,2013-01-12 18:43:00,
2013-01-12 13:53:00,56.0,56.0,-100.00,North,9,5.0,14.0,99,0.00,,,0.04,353.000000,,2013-01-12 18:53:00,
2013-01-12 14:03:00,55.0,55.0,-100.00,NNW,336,7.0,12.0,99,0.00,,,0.03,192.000000,,2013-01-12 19:03:00,
2013-01-12 14:23:00,55.0,55.0,-100.00,NNW,336,7.0,12.0,99,0.00,,,0.03,192.000000,,2013-01-12 19:23:00,
2013-01-12 14:33:00,55.0,55.0,-100.00,NNW,336,7.0,12.0,99,0.00,,,0.03,192.000000,,2013-01-12 19:33:00,
2013-01-12 14:43:00,55.0,55.0,-100.00,NNW,336,7.0,12.0,99,0.00,,,0.03,192.000000,,2013-01-12 19:43:00,
2013-01-12 14:53:00,55.0,55.0,-100.00,NNW,336,7.0,12.0,99,0.00,,,0.03,192.000000,,2013-01-12 19:53:00,
2013-01-12 15:03:00,57.0,56.0,-100.00,West,268,10.0,15.0,98,0.00,,,0.03,311.000000,,2013-01-12 20:03:00,
2013-01-12 15:33:00,57.0,56.0,-100.00,West,268,10.0,15.0,98,0.00,,,0.03,311.000000,,2013-01-12 20:33:00,
2013-01-12 15:43:00,57.0,56.0,-100.00,West,268,10.0,15.0,98,0.00,,,0.03,311.000000,,2013-01-12 20:43:00,
2013-01-12 15:53:00,57.0,56.0,-100.00,West,268,10.0,15.0,98,0.00,,,0.03,311.000000,,2013-01-12 20:53:00,
2013-01-12 16:03:00,58.0,50.0,-100.00,WNW,300,8.0,14.0,76,0.00,,,0.03,189.000000,,2013-01-12 21:03:00,
2013-01-12 16:33:00,58.0,50.0,-100.00,WNW,300,8.0,14.0,76,0.00,,,0.03,189.000000,,2013-01-12 21:33:00,
2013-01-12 16:43:00,58.0,50.0,-100.00,WNW,300,8.0,14.0,76,0.00,,,0.03,189.000000,,2013-01-12 21:43:00,
2013-01-12 16:53:00,58.0,50.0,-100.00,WNW,300,8.0,14.0,76,0.00,,,0.03,189.000000,,2013-01-12 21:53:00,
2013-01-12 17:03:00,57.0,48.0,-100.00,NW,304,12.0,20.0,71,0.00,,,0.03,94.000000,,2013-01-12 22:03:00,
2013-01-12 17:33:00,57.0,48.0,-100.00,NW,304,12.0,20.0,71,0.00,,,0.03,94.000000,,2013-01-12 22:33:00,
2013-01-12 17:43:00,57.0,48.0,-100.00,NW,304,12.0,20.0,71,0.00,,,0.03,94.000000,,2013-01-12 22:43:00,
2013-01-12 17:53:00,57.0,48.0,-100.00,NW,304,12.0,20.0,71,0.00,,,0.03,94.000000,,2013-01-12 22:53:00,
2013-01-12 18:03:00,56.0,45.0,-100.00,West,280,15.0,24.0,66,0.00,,,0.03,11.000000,,2013-01-12 23:03:00,
2013-01-12 18:33:00,56.0,45.0,-100.00,West,280,15.0,24.0,66,0.00,,,0.03,11.000000,,2013-01-12 23:33:00,
2013-01-12 18:43:00,56.0,45.0,-100.00,West,280,15.0,24.0,66,0.00,,,0.03,11.000000,,2013-01-12 23:43:00,
2013-01-12 18:53:00,56.0,45.0,-100.00,West,280,15.0,24.0,66,0.00,,,0.03,11.000000,,2013-01-12 23:53:00,
2013-01-12 19:03:00,54.0,37.0,-100.00,WNW,293,14.0,24.0,53,0.00,,,0.03,0.000000,,2013-01-13 00:03:00,
2013-01-12 19:33:00,54.0,37.0,-100.00,WNW,293,14.0,24.0,53,0.00,,,0.03,0.000000,,2013-01-13 00:33:00,
2013-01-12 19:43:00,54.0,37.0,-100.00,WNW,293,14.0,24.0,53,0.00,,,0.03,0.000000,,2013-01-13 00:43:00,
2013-01-12 19:53:00,54.0,37.0,-100.00,WNW,293,14.0,24.0,53,0.00,,,0.03,0.000000,,2013-01-13 00:53:00,
2013-01-12 20:33:00,52.0,35.0,-100.00,West,279,18.0,29.0,53,0.00,,,0.03,0.000000,,2013-01-13 01:33:00,
2013-01-12 20:43:00,52.0,35.0,-100.00,West,279,18.0,29.0,53,0.00,,,0.03,0.000000,,2013-01-13 01:43:00,
2013-01-12 20:53:00,52.0,35.0,-100.00,West,279,18.0,29.0,53,0.00,,,0.03,0.000000,,2013-01-13 01:53:00,
2013-01-12 21:02:00,52.0,35.0,-100.00,West,279,18.0,29.0,53,0.00,,,0.03,0.000000,,2013-01-13 02:02:00,
2013-01-12 21:03:00,48.0,44.0,-100.00,NW,308,16.0,34.0,87,0.00,,,0.03,0.000000,,2013-01-13 02:03:00,
2013-01-12 21:23:00,48.0,44.0,-100.00,NW,308,16.0,34.0,87,0.00,,,0.03,0.000000,,2013-01-13 02:23:00,
2013-01-12 21:33:00,48.0,44.0,-100.00,NW,308,16.0,34.0,87,0.00,,,0.03,0.000000,,2013-01-13 02:33:00,
2013-01-12 21:43:00,48.0,44.0,-100.00,NW,308,16.0,34.0,87,0.00,,,0.03,0.000000,,2013-01-13 02:43:00,
2013-01-12 21:53:00,48.0,44.0,-100.00,NW,308,16.0,34.0,87,0.00,,,0.03,0.000000,,2013-01-13 02:53:00,
2013-01-12 22:03:00,47.0,45.0,-100.00,NW,308,13.0,27.0,94,0.00,,,0.03,0.000000,,2013-01-13 03:03:00,
2013-01-12 22:22:00,47.0,45.0,-100.00,NW,308,13.0,27.0,94,0.00,,,0.03,0.000000,,2013-01-13 03:22:00,
2013-01-12 22:33:00,47.0,45.0,-100.00,NW,308,13.0,27.0,94,0.00,,,0.03,0.000000,,2013-01-13 03:33:00,
2013-01-12 22:43:00,47.0,45.0,-100.00,NW,308,13.0,27.0,94,0.00,,,0.03,0.000000,,2013-01-13 03:43:00,
2013-01-12 22:53:00,47.0,45.0,-100.00,NW,308,13.0,27.0,94,0.00,,,0.03,0.000000,,2013-01-13 03:53:00,
2013-01-12 23:03:00,48.0,46.0,-100.00,NW,308,20.0,35.0,94,0.00,,,0.03,0.000000,,2013-01-13 04:03:00,
2013-01-12 23:33:00,48.0,46.0,-100.00,NW,308,20.0,35.0,94,0.00,,,0.03,0.000000,,2013-01-13 04:33:00,
2013-01-12 23:43:00,48.0,46.0,-100.00,NW,308,20.0,35.0,94,0.00,,,0.03,0.000000,,2013-01-13 04:43:00,
2013-01-12 23:53:00,48.0,46.0,-100.00,NW,308,20.0,35.0,94,0.00,,,0.03,0.000000,,2013-01-13 04:53:00,